Zurück zum Katalog

STARLINK-5187

AktivKommunikationVLEO
NORAD 54065·PAYLOAD·🇺🇸 United States

Gestartet Oct 20, 2022 von Cape Canaveral Space Force Station

Loading…

Nächste Überflüge (nächste 24 Stunden)

TLE

AktuellSource: CelesTrak SupGP

Epoche: Sep 14, 2026, 13:27 UTC

1 54065C 22136Q   26257.56090278 -.00029462  00000+0 -84316-3 0  2579
2 54065  53.1582 205.8042 0001299  86.1600  35.6864 15.35404924    19

Verfolge STARLINK-5187 in Echtzeit mit AllMySat

Download on the App Store